TimeEST,TemperatureF,Dew PointF,Humidity,Sea Level PressureIn,VisibilityMPH,Wind Direction,Wind SpeedMPH,Gust SpeedMPH,PrecipitationIn,Events,Conditions,WindDirDegrees,DateUTC
12:51 AM,55.9,53.1,90,29.90,6.0,East,21.9,32.2,0.13,Rain,Rain,90,2013-02-08 05:51:00
1:12 AM,55.4,53.6,94,29.86,5.0,East,24.2,35.7,0.05,Rain,Rain,90,2013-02-08 06:12:00
1:51 AM,55.9,54.0,93,29.81,3.0,East,27.6,38.0,0.18,Rain,Rain,90,2013-02-08 06:51:00
2:21 AM,57.2,55.4,94,29.77,2.0,East,28.8,40.3,0.11,Rain,Heavy Rain,100,2013-02-08 07:21:00
2:27 AM,57.2,55.4,94,29.77,1.8,East,26.5,39.1,0.15,Rain,Heavy Rain,100,2013-02-08 07:27:00
2:51 AM,57.9,57.0,97,29.72,1.8,East,18.4,32.2,0.46,Rain,Heavy Rain,90,2013-02-08 07:51:00
2:55 AM,57.2,57.2,100,29.71,2.0,East,25.3,41.4,0.03,Rain,Heavy Rain,90,2013-02-08 07:55:00
3:03 AM,59.0,57.2,94,29.71,1.2,East,27.6,41.4,0.13,Rain,Heavy Rain,100,2013-02-08 08:03:00
3:23 AM,60.8,60.8,100,29.66,1.5,ESE,27.6,41.4,0.41,Rain,Heavy Rain,120,2013-02-08 08:23:00
3:48 AM,62.6,60.8,94,29.61,1.0,SE,32.2,43.7,0.65,Rain,Heavy Rain,130,2013-02-08 08:48:00
3:51 AM,62.1,61.0,96,29.60,1.0,SE,34.5,44.9,0.68,Rain,Heavy Rain,130,2013-02-08 08:51:00
4:07 AM,62.6,60.8,94,29.59,1.0,SE,36.8,49.5,0.14,Rain,Heavy Rain,130,2013-02-08 09:07:00
4:23 AM,62.6,60.8,94,29.55,0.8,SE,35.7,44.9,0.37,Rain,Heavy Rain,130,2013-02-08 09:23:00
4:32 AM,62.6,62.6,100,29.55,1.2,SE,33.4,50.6,0.43,Rain,Rain,140,2013-02-08 09:32:00
4:42 AM,62.6,62.6,100,29.54,0.8,SSE,27.6,44.9,0.54,Rain,Heavy Rain,150,2013-02-08 09:42:00
4:51 AM,62.1,61.0,96,29.53,0.5,SSE,35.7,50.6,0.68,Fog-Rain,Heavy Rain,160,2013-02-08 09:51:00
4:57 AM,62.6,60.8,94,29.50,0.2,SE,32.2,48.3,0.23,Fog-Rain,Heavy Rain,140,2013-02-08 09:57:00
5:08 AM,62.6,62.6,100,29.48,1.0,SSW,20.7,28.8,0.70,Rain,Rain,200,2013-02-08 10:08:00
5:10 AM,62.6,62.6,100,29.49,2.0,SSW,23.0,33.4,0.71,Rain,Rain,200,2013-02-08 10:10:00
5:16 AM,62.6,60.8,94,29.50,3.0,SSW,20.7,33.4,0.72,Rain,Rain,200,2013-02-08 10:16:00
5:23 AM,62.6,60.8,94,29.50,4.0,South,19.6,29.9,0.72,Rain,Light Rain,190,2013-02-08 10:23:00
5:32 AM,62.6,60.8,94,29.50,4.0,South,19.6,29.9,0.72,,Overcast,180,2013-02-08 10:32:00
5:51 AM,63.0,60.1,90,29.49,5.0,South,20.7,29.9,0.72,,Mostly Cloudy,180,2013-02-08 10:51:00
6:51 AM,64.9,62.1,90,29.46,4.0,South,16.1,25.3,N/A,,Overcast,190,2013-02-08 11:51:00
7:37 AM,62.6,59.0,88,29.44,2.5,SW,17.3,25.3,N/A,,Overcast,220,2013-02-08 12:37:00
7:47 AM,63.0,59.0,87,29.44,2.5,SW,21.9,33.4,N/A,,Overcast,230,2013-02-08 12:47:00
8:01 AM,60.8,57.2,88,29.44,3.0,SW,19.6,27.6,0.00,,Overcast,220,2013-02-08 13:01:00
8:29 AM,60.8,57.2,88,29.43,2.5,WSW,16.1,24.2,0.00,,Overcast,240,2013-02-08 13:29:00
8:39 AM,59.0,55.4,88,29.44,1.8,WNW,11.5,21.9,0.00,,Overcast,290,2013-02-08 13:39:00
8:47 AM,53.6,51.8,94,29.45,3.0,NW,17.3,25.3,0.00,,Overcast,310,2013-02-08 13:47:00
8:51 AM,53.1,51.1,93,29.46,5.0,NW,15.0,25.3,0.00,,Overcast,310,2013-02-08 13:51:00
8:57 AM,53.6,51.8,94,29.46,9.0,NW,13.8,27.6,N/A,,Overcast,310,2013-02-08 13:57:00
9:51 AM,51.1,48.0,89,29.54,10.0,NW,18.4,36.8,0.00,,Overcast,320,2013-02-08 14:51:00
10:32 AM,51.8,46.4,82,29.59,10.0,NW,19.6,32.2,N/A,,Mostly Cloudy,320,2013-02-08 15:32:00
10:51 AM,53.1,46.9,80,29.61,10.0,NW,19.6,34.5,N/A,,Mostly Cloudy,310,2013-02-08 15:51:00
11:42 AM,53.6,46.4,77,29.64,10.0,NW,15.0,28.8,N/A,,Scattered Clouds,310,2013-02-08 16:42:00
11:51 AM,54.0,46.9,77,29.64,10.0,NW,13.8,31.1,N/A,,Partly Cloudy,310,2013-02-08 16:51:00
12:51 PM,53.1,46.9,80,29.69,10.0,WNW,18.4,31.1,N/A,,Overcast,300,2013-02-08 17:51:00
1:51 PM,51.1,45.0,80,29.72,10.0,WNW,17.3,31.1,N/A,,Overcast,300,2013-02-08 18:51:00
2:19 PM,50.0,44.6,82,29.73,10.0,WNW,18.4,29.9,N/A,,Overcast,300,2013-02-08 19:19:00
2:51 PM,50.0,44.1,80,29.74,10.0,WNW,13.8,26.5,N/A,,Overcast,300,2013-02-08 19:51:00
3:12 PM,50.0,44.6,82,29.74,10.0,WNW,11.5,24.2,N/A,,Overcast,290,2013-02-08 20:12:00
3:51 PM,50.0,45.0,83,29.75,10.0,West,13.8,23.0,N/A,,Mostly Cloudy,280,2013-02-08 20:51:00
4:20 PM,50.0,44.6,82,29.76,10.0,West,15.0,28.8,N/A,,Overcast,280,2013-02-08 21:20:00
4:49 PM,50.0,44.6,82,29.77,10.0,West,15.0,26.5,N/A,,Scattered Clouds,280,2013-02-08 21:49:00
4:51 PM,50.0,44.1,80,29.77,10.0,West,13.8,27.6,N/A,,Partly Cloudy,280,2013-02-08 21:51:00
5:51 PM,50.0,45.0,83,29.78,10.0,West,15.0,25.3,N/A,,Clear,280,2013-02-08 22:51:00
6:51 PM,50.0,46.0,86,29.82,10.0,West,11.5,21.9,N/A,,Clear,280,2013-02-08 23:51:00
7:51 PM,51.1,45.0,80,29.84,10.0,West,16.1,25.3,N/A,,Clear,280,2013-02-09 00:51:00
8:51 PM,50.0,45.0,83,29.87,10.0,West,11.5,24.2,N/A,,Clear,280,2013-02-09 01:51:00
9:51 PM,51.1,45.0,80,29.88,10.0,West,12.7,23.0,N/A,,Clear,280,2013-02-09 02:51:00
10:51 PM,51.1,44.1,77,29.89,10.0,WNW,17.3,27.6,N/A,,Clear,290,2013-02-09 03:51:00
11:51 PM,48.9,37.0,64,29.92,10.0,NW,16.1,33.4,N/A,,Clear,310,2013-02-09 04:51:00